{"data":{"norad_id":65956,"epoch":"2026-05-25T00:41:49.151040Z","epoch_age_seconds":72519,"freshness":"FRESH","line1":"1 65956U 25228K   26145.02904110  .00000028  00000+0  32716-4 0  9997","line2":"2 65956  51.9017  15.4867 0001279 109.7837 250.3263 14.79932476 34641","mean_motion":14.79932476,"eccentricity":0.0001279,"inclination_deg":51.9017,"raan_deg":15.4867,"arg_perigee_deg":109.7837,"mean_anomaly_deg":250.3263,"bstar":3.2716e-5,"rev_number":3464,"period_min":97.301736623286,"perigee_km":628.6410017728,"apogee_km":630.43356485447,"semimajor_km":7007.6742833136,"source":"CELESTRAK","updated_at":"2026-05-25T13:38:05.847029Z"}}